星链-36822(STARLINK-36822)

导读 | 豆包AI

STARLINK-36822是美国SpaceX公司星链(Starlink)星座的一员,于北京时间2026年2月22日搭载猎鹰9号火箭发射升空,本次任务共将28颗星链卫星送入轨道。星链星座旨在构建低轨卫星互联网,为全球缺乏传统基础设施的偏远地区提供高速、低延迟的宽带网络服务,助力实现全球互联网覆盖。

基本信息
目录编号:
67909
目录名称:
STARLINK-36822
国际标识:
2026-036F
轨道中心:
EARTH
卫星名称:
星链-36822
卫星全名:
星链-36822(STARLINK-36822)
卫星状态:
在轨 (已飞行92 天)
发射日期:
2026-02-22 UTC
国别 :
美国 (US)
星等 :
--
轨道信息
数据来源 国际轨道数据
星历时间: 2026-05-25T10:00:36+0800
7小时前
查看轨道信息
半长轴: 6861.169km
偏心率: 0.0001519
轨道倾角: 43.001°
近地点辐角 276.488°
升交点赤经 174.004°
平近点角 83.580°
近地点: 481.989km
远地点: 484.075km
周期: 94.266分钟
每日圈数: 15.275859
详细信息
固有亮度:
5
最大亮度:
2.5
卫星平台:
Starlink V1.0
覆盖范围:
全球
运营商:
太空探索技术公司
运营商所在国:
美国
制造商(研发单位):
太空探索技术公司
制造商所在国:
美国
使用方式:
暂无
卫星简介
Starlink 计划是 SpaceX 推出的全球卫星互联网项目,通过发射低轨道卫星,为全球尤其是偏远地区提供高速、低延迟的互联网服务。自 2019 年起,Starlink 已部署数千颗卫星,旨在缩小全球数字鸿沟,推动互联网普及。该项目还为军事、航空等行业提供通信支持,带来广泛经济效益。
2D轨道图
3D轨道图
轨道高度分析图
轨道倾角分析图
轨道综合分析图
查看轨道综合分析图